Location: Dalton
(34.7700°N, 84.9700°W)
Time: 15:03:47
(UTC-04:00)

Tiangong 2 - Pass Details

Date: 09 October 2017
Orbit: 388 x 391 km, 42.8° (Epoch: 22 October)

Event Time Altitude Azimuth Distance (km) Brightness Sun altitude
Exits shadow 06:28:28 40° 279° (W) 589 1.5 -15.7°
Maximum altitude 06:29:19 57° 335° (NNW) 463 1.3 -15.5°
Drops below altitude 10° 06:32:29 10° 56° (NE) 1,421 4.8 -14.9°
Sets 06:34:35 0° 60° (ENE) 2,279 6.2 -14.4°
